Powrót do katalogu

STARLINK-35894

AktywnyŁącznośćVLEO
NORAD 66500·PAYLOAD·🇺🇸 United States

Wystrzelony Nov 15, 2025 z Cape Canaveral Space Force Station

Loading…

Następne Przeloty (najbliższe 24 godziny)

TLE

ŚwieżeSource: CelesTrak SupGP

Epoka: Sep 15, 2026, 03:09 UTC

1 66500C 25263R   26258.13173611  .00031996  00000+0  11588-2 0  2581
2 66500  43.0037   4.2608 0001639 261.3739  39.5995 15.27566124    16

Śledź STARLINK-35894 w czasie rzeczywistym z AllMySat

Download on the App Store